Volver al catálogo

CZ-6A DEB

ActivoSSO
NORAD 56612·DEBRIS·🇨🇳 China

Lanzado Nov 11, 2022 desde Taiyuan Satellite Launch Center

Loading…

Próximos Pases (próximas 24 horas)

TLE

ActualizadoSource: Space-Track

Época: Sep 14, 2026, 05:55 UTC

1 56612U 22151AEL 26257.24674285  .00000592  00000-0  32599-3 0  9998
2 56612  98.8263 262.0665 0036486  50.9935 309.4478 14.15052795174852

Sigue CZ-6A DEB en tiempo real con AllMySat

Download on the App Store